Weather History for El Paso, TX

Change the Weather History Date:

Monday, October 7, 2013

  Actual Average Record
Temperature  
Mean Temperature 63 °F 68 °F  
Max Temperature 80 °F 81 °F 96 °F (1979)
Min Temperature 46 °F 55 °F 39 °F (1880)
Degree Days  
Heating Degree Days 2 1  
Month to date heating degree days 6 6  
Since 1 July heating degree days 6 10  
Cooling Degree Days 0 4  
Month to date cooling degree days 37 36  
Year to date cooling degree days 2652 2282  
Growing Degree Days 12 (Base 50)    
Moisture  
Dew Point 28 °F    
Average Humidity 31    
Maximum Humidity 49    
Minimum Humidity 13    
Precipitation  
Precipitation 0.00 in 0.02 in 0.63 in (1939)
Month to date precipitation 0.00 0.17  
Year to date precipitation 9.15 8.00  
Snow  
Snow 0.00 in - - ()
Month to date snowfall 0.0  
Since 1 July snowfall T  
Since 1 September snowfall 0.0  
Snow Depth 0.00 in    
Sea Level Pressure  
Sea Level Pressure 30.05 in    
Wind  
Wind Speed 4 mph (NNE)    
Max Wind Speed 13 mph    
Max Gust Speed 17 mph    
Visibility 10 miles    
Events      
T = Trace of Precipitation, MM = Missing Value Source: NWS Daily Summary

Daily Weather History Graph

Daily Weather History Graph

Search for Another Location

Airport:

Trip Planner

Search our weather history database for the weather conditions in past years. The results will help you decide how hot, cold, wet, or windy it might be!

Date:

Astronomy

Oct. 07, 2013 Rise Set
Actual Time 7:03 AM MDT 6:42 PM MDT
Civil Twilight 6:39 AM MDT 7:06 PM MDT
Nautical Twilight 6:10 AM MDT 7:35 PM MDT
Astronomical Twilight 5:42 AM MDT 8:03 PM MDT
Moon 9:45 AM MDT (10/7) 8:41 PM MDT (10/7)
Length of Visible Light 12h 27m
Length of Day
11h 38m
Waxing Crescent, 9% of the Moon is Illuminated
Oct 7
Waxing Crescent
Oct 11
First Quarter
Oct 18
Full
Oct 26
Last Quarter
Nov 3
New

Hourly Weather History & Observations

Time (MDT) Temp. Dew Point Humidity Pressure Visibility Wind Dir Wind Speed Gust Speed Precip Events Conditions
12:51 AM 52.0 °F 30.0 °F 43% 30.10 in 10.0 mi ENE 4.6 mph - N/A   Clear
2:51 AM 51.1 °F 28.9 °F 43% 30.09 in 10.0 mi NE 4.6 mph - N/A   Clear
3:51 AM 52.0 °F 28.9 °F 41% 30.08 in 10.0 mi North 3.5 mph - N/A   Clear
4:51 AM 51.1 °F 28.0 °F 41% 30.09 in 10.0 mi Calm Calm - N/A   Clear
5:51 AM 48.0 °F 28.9 °F 48% 30.10 in 10.0 mi NNE 4.6 mph - N/A   Clear
6:51 AM 46.9 °F 28.0 °F 48% 30.13 in 10.0 mi NNE 6.9 mph - N/A   Clear
7:51 AM 50.0 °F 27.0 °F 41% 30.15 in 10.0 mi North 8.1 mph - N/A   Clear
8:51 AM 55.0 °F 28.0 °F 35% 30.16 in 10.0 mi North 6.9 mph - N/A   Clear
9:51 AM 63.0 °F 30.0 °F 29% 30.16 in 10.0 mi NNW 4.6 mph - N/A   Clear
10:51 AM 66.9 °F 26.1 °F 21% 30.14 in 10.0 mi Calm Calm - N/A   Partly Cloudy
11:51 AM 71.1 °F 27.0 °F 19% 30.11 in 10.0 mi Calm Calm - N/A   Partly Cloudy
12:51 PM 73.9 °F 28.0 °F 18% 30.09 in 10.0 mi West 3.5 mph - N/A   Partly Cloudy
1:51 PM 75.9 °F 26.1 °F 16% 30.04 in 10.0 mi Calm Calm - N/A   Partly Cloudy
2:51 PM 78.1 °F 24.1 °F 14% 30.00 in 10.0 mi Calm Calm - N/A   Partly Cloudy
3:51 PM 79.0 °F 26.1 °F 14% 29.97 in 10.0 mi South 6.9 mph - N/A   Scattered Clouds
4:51 PM 79.0 °F 24.1 °F 13% 29.96 in 10.0 mi SE 4.6 mph - N/A   Scattered Clouds
5:51 PM 79.0 °F 25.0 °F 14% 29.96 in 10.0 mi NE 3.5 mph - N/A   Scattered Clouds
6:51 PM 73.9 °F 26.1 °F 17% 29.98 in 10.0 mi NE 5.8 mph - N/A   Scattered Clouds
7:51 PM 71.1 °F 26.1 °F 19% 29.98 in 10.0 mi North 3.5 mph - N/A   Scattered Clouds
8:51 PM 69.1 °F 28.0 °F 22% 29.98 in 10.0 mi North 3.5 mph - N/A   Scattered Clouds
9:51 PM 63.0 °F 30.0 °F 29% 29.98 in 10.0 mi ENE 5.8 mph - N/A   Mostly Cloudy
10:51 PM 64.9 °F 30.0 °F 27% 29.97 in 10.0 mi North 3.5 mph - N/A   Mostly Cloudy
11:51 PM 61.0 °F 30.0 °F 31% 29.95 in 10.0 mi Variable 3.5 mph - N/A   Scattered Clouds